When you browse on this site, cookies collect data to enhance your experience and personalize the content and advertising you see.
Visit our Privacy Policy to learn more. By continuing to use the site, you agree to this use of cookies and data.
  • In Austria
  • List of Countries
  • For 7 days
  • Water Temperature
  • Satellite Maps
  • Weather Map
  • News
  • Weather Widgets
  • user-avatar
    Login

    Hourly Weather Slepnevo

    Today, 20 February, Wednesday

    Time Temperature Precipitation Wind Pressure Humidity
    00:00 0°C° 0.1 mm 4 mps 735 mmHg 91%
    01:00 0°C° 0.1 mm 4 mps 735 mmHg 91%
    02:00 0°C° 0.1 mm 4 mps 735 mmHg 91%
    03:00 0°C° 0.2 mm 4 mps 734 mmHg 92%
    04:00 0°C° 0.2 mm 4 mps 734 mmHg 92%
    05:00 0°C° 0.2 mm 4 mps 734 mmHg 92%
    06:00 0°C° 0.1 mm 4 mps 734 mmHg 92%
    07:00 0°C° 0.1 mm 4 mps 734 mmHg 91%
    08:00 0°C° 0.1 mm 4 mps 734 mmHg 91%
    09:00 0°C° 0.1 mm 4 mps 733 mmHg 89%
    10:00 0°C° 0.1 mm 4 mps 733 mmHg 88%
    11:00 +1°C° 0.1 mm 4 mps 733 mmHg 86%
    12:00 +1°C° 0.2 mm 4 mps 733 mmHg 86%
    13:00 +1°C° 0.2 mm 5 mps 732 mmHg 85%
    14:00 +1°C° 0.2 mm 5 mps 732 mmHg 85%
    15:00 +1°C° 0.5 mm 5 mps 732 mmHg 85%
    16:00 0°C° 0.5 mm 5 mps 732 mmHg 86%
    17:00 0°C° 0.5 mm 4 mps 732 mmHg 87%
    18:00 -1°C° 0.3 mm 5 mps 732 mmHg 84%
    19:00 -2°C° 0.3 mm 5 mps 732 mmHg 80%
    20:00 -4°C° 0.3 mm 5 mps 733 mmHg 76%
    21:00 -5°C° 0.3 mm 5 mps 733 mmHg 78%
    22:00 -5°C° 0.3 mm 6 mps 733 mmHg 80%
    23:00 -5°C° 0.3 mm 6 mps 734 mmHg 82%

    Tomorrow, 21 February, Thursday

    Time Temperature Precipitation Wind Pressure Humidity
    00:00 -6°C° 0.2 mm 6 mps 734 mmHg 81%
    01:00 -6°C° 0.2 mm 6 mps 735 mmHg 80%
    02:00 -6°C° 0.2 mm 6 mps 735 mmHg 79%
    03:00 -8°C° 0.1 mm 6 mps 736 mmHg 77%
    04:00 -8°C° 0.1 mm 6 mps 736 mmHg 75%
    05:00 -8°C° 0.1 mm 7 mps 736 mmHg 74%
    06:00 -8°C° 0.1 mm 7 mps 737 mmHg 74%
    07:00 -9°C° 0.1 mm 7 mps 738 mmHg 74%
    08:00 -9°C° 0.1 mm 7 mps 739 mmHg 74%
    09:00 -9°C° 0.1 mm 7 mps 740 mmHg 73%
    10:00 -9°C° 0.1 mm 7 mps 741 mmHg 71%
    11:00 -8°C° 0.1 mm 7 mps 742 mmHg 70%
    12:00 -9°C° 0.1 mm 6 mps 742 mmHg 69%
    13:00 -9°C° 0.1 mm 6 mps 743 mmHg 68%
    14:00 -9°C° 0.1 mm 6 mps 744 mmHg 66%
    15:00 -9°C° 0 mm 6 mps 744 mmHg 67%
    16:00 -10°C° 0 mm 6 mps 745 mmHg 68%
    17:00 -11°C° 0 mm 5 mps 746 mmHg 68%
    18:00 -11°C° 0 mm 5 mps 746 mmHg 69%
    19:00 -12°C° 0 mm 5 mps 747 mmHg 69%
    20:00 -12°C° 0 mm 5 mps 748 mmHg 70%
    21:00 -12°C° 0 mm 5 mps 748 mmHg 70%
    22:00 -13°C° 0 mm 5 mps 749 mmHg 69%
    23:00 -13°C° 0 mm 5 mps 749 mmHg 69%

    Day after tomorrow, 22 February, Friday

    Time Temperature Precipitation Wind Pressure Humidity
    00:00 -13°C° 0 mm 5 mps 750 mmHg 70%
    01:00 -13°C° 0 mm 5 mps 751 mmHg 71%
    02:00 -14°C° 0 mm 4 mps 751 mmHg 72%
    03:00 -14°C° 0 mm 5 mps 752 mmHg 72%
    04:00 -14°C° 0 mm 5 mps 752 mmHg 72%
    05:00 -14°C° 0 mm 5 mps 753 mmHg 72%
    06:00 -14°C° 0 mm 5 mps 753 mmHg 72%
    07:00 -14°C° 0 mm 5 mps 754 mmHg 72%
    08:00 -13°C° 0 mm 5 mps 754 mmHg 71%
    09:00 -14°C° 0 mm 6 mps 755 mmHg 68%
    10:00 -12°C° 0 mm 6 mps 755 mmHg 65%
    11:00 -11°C° 0 mm 6 mps 755 mmHg 61%
    12:00 -11°C° 0 mm 6 mps 755 mmHg 61%
    13:00 -11°C° 0 mm 6 mps 755 mmHg 61%
    14:00 -10°C° 0 mm 6 mps 755 mmHg 61%
    15:00 -10°C° 0 mm 6 mps 756 mmHg 63%
    16:00 -11°C° 0 mm 6 mps 756 mmHg 65%
    17:00 -11°C° 0 mm 6 mps 756 mmHg 67%
    18:00 -11°C° 0 mm 6 mps 757 mmHg 70%
    19:00 -11°C° 0 mm 5 mps 757 mmHg 72%
    20:00 -12°C° 0 mm 5 mps 758 mmHg 74%
    21:00 -12°C° 0 mm 5 mps 758 mmHg 74%
    22:00 -12°C° 0 mm 4 mps 759 mmHg 74%
    23:00 -12°C° 0 mm 4 mps 759 mmHg 74%

    23 February, Saturday

    Time Temperature Precipitation Wind Pressure Humidity
    00:00 -12°C° 0 mm 4 mps 759 mmHg 77%
    01:00 -14°C° 0 mm 4 mps 759 mmHg 79%
    02:00 -13°C° 0 mm 3 mps 760 mmHg 82%
    03:00 -14°C° 0 mm 3 mps 760 mmHg 83%
    04:00 -14°C° 0 mm 3 mps 760 mmHg 85%
    05:00 -13°C° 0 mm 2 mps 760 mmHg 87%
    06:00 -13°C° 0 mm 2 mps 760 mmHg 87%
    07:00 -13°C° 0 mm 2 mps 760 mmHg 88%
    08:00 -13°C° 0 mm 2 mps 760 mmHg 88%
    09:00 -12°C° 0 mm 2 mps 760 mmHg 82%
    10:00 -10°C° 0 mm 2 mps 760 mmHg 76%
    11:00 -9°C° 0 mm 2 mps 760 mmHg 70%
    12:00 -9°C° 0 mm 2 mps 760 mmHg 67%
    13:00 -8°C° 0 mm 2 mps 759 mmHg 64%
    14:00 -8°C° 0 mm 2 mps 759 mmHg 61%
    15:00 -7°C° 0 mm 1 mps 758 mmHg 63%
    16:00 -7°C° 0 mm 1 mps 758 mmHg 66%
    17:00 -7°C° 0 mm 1 mps 758 mmHg 69%
    18:00 -7°C° 0 mm 1 mps 757 mmHg 71%
    19:00 -7°C° 0 mm 1 mps 757 mmHg 73%
    20:00 -7°C° 0 mm 1 mps 757 mmHg 75%
    21:00 -7°C° 0.1 mm 1 mps 757 mmHg 80%
    22:00 -7°C° 0.1 mm 1 mps 757 mmHg 84%
    23:00 -7°C° 0.1 mm 1 mps 757 mmHg 88%

    24 February, Sunday

    Time Temperature Precipitation Wind Pressure Humidity
    00:00 -7°C° 0 mm 1 mps 757 mmHg 90%
    01:00 -7°C° 0 mm 1 mps 757 mmHg 91%
    02:00 -7°C° 0 mm 1 mps 757 mmHg 93%
    03:00 -7°C° 0 mm 1 mps 757 mmHg 93%
    04:00 -6°C° 0 mm 1 mps 757 mmHg 93%
    05:00 -6°C° 0 mm 1 mps 757 mmHg 94%
    06:00 -6°C° 0 mm 1 mps 758 mmHg 94%
    07:00 -6°C° 0 mm 0 mps 758 mmHg 93%
    08:00 -6°C° 0 mm 0 mps 759 mmHg 93%
    09:00 -5°C° 0 mm 0 mps 759 mmHg 89%
    10:00 -4°C° 0 mm 0 mps 759 mmHg 85%
    11:00 -2°C° 0 mm 1 mps 760 mmHg 81%
    12:00 -1°C° 0 mm 1 mps 760 mmHg 80%
    13:00 -1°C° 0 mm 1 mps 760 mmHg 79%
    14:00 -1°C° 0 mm 1 mps 760 mmHg 77%
    15:00 -1°C° 0 mm 1 mps 760 mmHg 81%
    16:00 -1°C° 0 mm 1 mps 759 mmHg 84%
    17:00 -2°C° 0 mm 1 mps 759 mmHg 88%
    18:00 -2°C° 0 mm 1 mps 759 mmHg 89%
    19:00 -2°C° 0 mm 1 mps 759 mmHg 90%
    20:00 -2°C° 0 mm 1 mps 759 mmHg 92%
    21:00 -2°C° 0 mm 1 mps 759 mmHg 93%
    22:00 -2°C° 0 mm 1 mps 759 mmHg 94%
    23:00 -3°C° 0 mm 1 mps 759 mmHg 94%

    25 February, Monday

    Time Temperature Precipitation Wind Pressure Humidity
    00:00 -5°C° 0 mm 2 mps 758 mmHg 95%
    01:00 -5°C° 0 mm 2 mps 758 mmHg 96%
    02:00 -6°C° 0 mm 2 mps 757 mmHg 96%
    03:00 -5°C° 0 mm 2 mps 757 mmHg 96%
    04:00 -5°C° 0 mm 2 mps 756 mmHg 96%
    05:00 -4°C° 0 mm 2 mps 756 mmHg 96%
    06:00 -4°C° 0.1 mm 2 mps 755 mmHg 96%
    07:00 -3°C° 0.1 mm 2 mps 755 mmHg 97%
    08:00 -3°C° 0.1 mm 2 mps 755 mmHg 97%
    09:00 -2°C° 0.1 mm 2 mps 755 mmHg 95%
    10:00 -1°C° 0.1 mm 2 mps 755 mmHg 94%
    11:00 0°C° 0.1 mm 3 mps 755 mmHg 92%
    12:00 0°C° 0 mm 3 mps 754 mmHg 88%
    13:00 0°C° 0 mm 3 mps 754 mmHg 84%
    14:00 +1°C° 0 mm 3 mps 754 mmHg 80%
    15:00 0°C° 0 mm 3 mps 754 mmHg 82%
    16:00 -1°C° 0 mm 2 mps 754 mmHg 84%
    17:00 -2°C° 0 mm 2 mps 753 mmHg 86%
    18:00 -2°C° 0 mm 2 mps 753 mmHg 87%
    19:00 -2°C° 0 mm 2 mps 753 mmHg 88%
    20:00 -2°C° 0 mm 2 mps 753 mmHg 89%
    21:00 -2°C° 0 mm 3 mps 753 mmHg 91%
    22:00 -2°C° 0 mm 3 mps 753 mmHg 92%
    23:00 -2°C° 0 mm 3 mps 752 mmHg 93%
    Show more